Daviess Cnty AP, Washington,, IN

9:49 AM EST on November 13, 2019 (GMT -0500)
Daviess County

Weather History for KDCY - September, 2019

Change the Weather History Date:

Thursday, September 26, 2019

  Actual Average (WUND) Record (WUND)
Temperature  
Mean Temperature 62 °F -  
Max Temperature 74 °F - - (-1)
Min Temperature 50 °F - - (-1)
Degree Days  
Heating Degree Days 3    
Growing Degree Days 12 (Base 50)    
Moisture  
Dew Point 54 °F    
Average Humidity 70    
Maximum Humidity 99    
Minimum Humidity 35    
Precipitation  
Precipitation 0.00 in - - ()
Sea Level Pressure  
Sea Level Pressure 29.95 in    
Wind  
Wind Speed 4 mph (NW)    
Max Wind Speed 12 mph    
Max Gust Speed 17 mph    
Visibility 10 miles    
Events      
Averages and records for this station are not official NWS values.
T = Trace of Precipitation, MM = Missing Value Source: NWS Daily Summary

Daily Weather History Graph

Daily Weather History Graph

Search for Another Location

Airport or City:

Astronomy

Sep. 26, 2019 Rise Set
Actual Time 7:39 AM EDT 7:39 PM EDT
Civil Twilight 7:13 AM EDT 8:05 PM EDT
Nautical Twilight 6:42 AM EDT 8:36 PM EDT
Astronomical Twilight 6:10 AM EDT 9:08 PM EDT
Moon 4:48 AM EDT (9/26) 6:50 PM EDT (9/26)
Length of Visible Light 12h 52m
Length of Day
11h 59m
Waning Crescent, 7% of the Moon is Illuminated
Sep 26
Waning Crescent
Sep 28
New
Oct 5
First Quarter
Oct 13
Full
Oct 21
Last Quarter

Hourly Weather History & Observations

Time (EDT) Temp. Dew Point Humidity Pressure Visibility Wind Dir Wind Speed Gust Speed Precip Events Conditions
12:15 AM 70.9 °F 66.6 °F 86% 29.86 in 10.0 mi West 3.5 mph - N/A   Overcast
12:35 AM 69.4 °F 67.3 °F 93% 29.86 in 10.0 mi WSW 4.6 mph - N/A   Mostly Cloudy
12:50 AM 70.2 °F 67.6 °F 92% 29.86 in 10.0 mi West 3.5 mph - N/A   Overcast
1:15 AM 70.7 °F 67.1 °F 88% 29.86 in 10.0 mi Calm Calm - N/A   Overcast
1:35 AM 70.0 °F 67.1 °F 91% 29.85 in 10.0 mi Calm Calm - N/A   Overcast
1:55 AM 68.9 °F 68.2 °F 98% 29.85 in 10.0 mi WNW 4.6 mph - N/A   Mostly Cloudy
2:15 AM 68.9 °F 68.5 °F 99% 29.85 in 10.0 mi NW 4.6 mph - N/A   Overcast
2:35 AM 68.2 °F 68.0 °F 99% 29.86 in 10.0 mi WNW 5.8 mph - N/A   Scattered Clouds
2:50 AM 68.5 °F 68.2 °F 99% 29.87 in 10.0 mi NW 6.9 mph - N/A   Scattered Clouds
3:15 AM 69.1 °F 68.0 °F 96% 29.87 in 10.0 mi NW 5.8 mph - N/A   Overcast
3:35 AM 68.4 °F 67.1 °F 96% 29.87 in 10.0 mi NNW 5.8 mph - N/A   Overcast
3:55 AM 68.0 °F 64.4 °F 88% 29.86 in 10.0 mi North 4.6 mph - N/A   Mostly Cloudy
4:15 AM 67.8 °F 60.4 °F 77% 29.87 in 10.0 mi NNW 4.6 mph - N/A   Overcast
5:10 AM 65.7 °F 59.4 °F 80% 29.89 in 10.0 mi NNW 3.5 mph - N/A   Overcast
5:35 AM 63.5 °F 58.3 °F 83% 29.90 in 10.0 mi NNW 4.6 mph - N/A   Scattered Clouds
5:55 AM 63.1 °F 58.1 °F 84% 29.90 in 10.0 mi NW 3.5 mph - N/A   Clear
6:15 AM 63.5 °F 57.6 °F 81% 29.92 in 10.0 mi WNW 4.6 mph - N/A   Clear
6:40 AM 63.5 °F 57.4 °F 80% 29.94 in 10.0 mi NW 6.9 mph - N/A   Mostly Cloudy
6:50 AM 63.5 °F 56.5 °F 78% 29.94 in 10.0 mi NW 6.9 mph - N/A   Overcast
7:15 AM 63.0 °F 55.9 °F 78% 29.95 in 10.0 mi NW 4.6 mph - N/A   Overcast
7:35 AM 61.9 °F 56.1 °F 81% 29.95 in 10.0 mi NW 4.6 mph - N/A   Overcast
7:50 AM 61.0 °F 55.6 °F 82% 29.95 in 10.0 mi NW 3.5 mph - N/A   Overcast
8:15 AM 60.8 °F 55.2 °F 82% 29.95 in 10.0 mi NW 5.8 mph - N/A   Scattered Clouds
8:35 AM 61.3 °F 55.6 °F 81% 29.97 in 10.0 mi NW 6.9 mph - N/A   Clear
8:55 AM 61.9 °F 55.6 °F 80% 29.98 in 10.0 mi NNW 5.8 mph - N/A   Clear
9:15 AM 62.6 °F 54.7 °F 75% 29.98 in 10.0 mi NNW 4.6 mph - N/A   Clear
9:35 AM 63.1 °F 54.7 °F 74% 29.99 in 10.0 mi NNW 8.1 mph - N/A   Clear
9:55 AM 63.1 °F 54.3 °F 73% 30.00 in 10.0 mi NNW 8.1 mph - N/A   Clear
10:15 AM 63.7 °F 54.1 °F 71% 30.01 in 10.0 mi North 11.5 mph 17.3 mph N/A   Clear
10:35 AM 64.8 °F 54.1 °F 68% 30.01 in 10.0 mi North 9.2 mph - N/A   Clear
10:55 AM 65.3 °F 54.0 °F 67% 30.02 in 10.0 mi North 10.4 mph - N/A   Clear
11:15 AM 66.2 °F 53.4 °F 63% 30.02 in 10.0 mi NNE 6.9 mph - N/A   Clear
11:35 AM 67.1 °F 52.9 °F 60% 30.03 in 10.0 mi North 8.1 mph - N/A   Clear
11:55 AM 68.4 °F 52.3 °F 57% 30.02 in 10.0 mi NNW 4.6 mph - N/A   Clear
12:15 PM 69.1 °F 52.7 °F 56% 30.03 in 10.0 mi NW 4.6 mph - N/A   Clear
12:35 PM 70.0 °F 50.7 °F 50% 30.02 in 10.0 mi NNE 5.8 mph - N/A   Clear
12:55 PM 70.9 °F 50.7 °F 49% 30.02 in 10.0 mi North 3.5 mph - N/A   Clear
1:15 PM 71.4 °F 50.0 °F 47% 30.02 in 10.0 mi North 4.6 mph - N/A   Clear
1:35 PM 72.3 °F 48.9 °F 43% 30.01 in 10.0 mi NNE 3.5 mph - N/A   Clear
1:55 PM 72.3 °F 48.9 °F 43% 30.00 in 10.0 mi Calm Calm - N/A   Clear
2:15 PM 72.7 °F 47.8 °F 41% 30.00 in 10.0 mi NNW 4.6 mph - N/A   Clear
2:35 PM 73.6 °F 48.6 °F 41% 29.99 in 10.0 mi NW 5.8 mph - N/A   Clear
2:55 PM 73.6 °F 48.4 °F 41% 29.98 in 10.0 mi NW 4.6 mph - N/A   Clear
3:15 PM 73.4 °F 44.1 °F 35% 29.98 in 10.0 mi North 4.6 mph - N/A   Clear
3:35 PM 74.1 °F 47.5 °F 39% 29.97 in 10.0 mi North 9.2 mph - N/A   Clear
3:55 PM 74.3 °F 46.8 °F 37% 29.97 in 10.0 mi WNW 6.9 mph - N/A   Clear
4:15 PM 74.3 °F 46.8 °F 37% 29.97 in 10.0 mi NW 6.9 mph - N/A   Clear
4:35 PM 74.5 °F 46.8 °F 37% 29.97 in 10.0 mi NW 5.8 mph - N/A   Clear
4:55 PM 74.3 °F 47.5 °F 39% 29.97 in 10.0 mi WNW 4.6 mph - N/A   Clear
5:15 PM 74.5 °F 47.1 °F 38% 29.97 in 10.0 mi NW 3.5 mph - N/A   Clear
5:35 PM 73.8 °F 46.2 °F 37% 29.97 in 10.0 mi North 4.6 mph - N/A   Clear
5:55 PM 72.9 °F 46.8 °F 39% 29.97 in 10.0 mi North 4.6 mph - N/A   Clear
6:15 PM 71.8 °F 48.7 °F 44% 29.97 in 10.0 mi North 3.5 mph - N/A   Clear
6:35 PM 69.8 °F 51.4 °F 52% 29.97 in 10.0 mi North 4.6 mph - N/A   Clear
6:55 PM 68.5 °F 51.1 °F 54% 29.96 in 10.0 mi Calm Calm - N/A   Clear
7:15 PM 63.1 °F 52.2 °F 67% 29.97 in 10.0 mi Calm Calm - N/A   Clear
7:35 PM 60.3 °F 51.8 °F 74% 29.96 in 10.0 mi WSW 3.5 mph - N/A   Clear
7:55 PM 58.5 °F 50.4 °F 74% 29.97 in 10.0 mi WSW 4.6 mph - N/A   Clear
8:15 PM 58.1 °F 48.6 °F 71% 29.96 in 10.0 mi Calm Calm - N/A   Clear
8:35 PM 56.3 °F 48.7 °F 76% 29.97 in 10.0 mi Calm Calm - N/A   Clear
8:55 PM 55.2 °F 50.2 °F 83% 29.97 in 10.0 mi North 3.5 mph - N/A   Clear
9:15 PM 55.0 °F 49.5 °F 81% 29.97 in 10.0 mi Calm Calm - N/A   Clear
9:35 PM 54.3 °F 49.8 °F 85% 29.97 in 10.0 mi Calm Calm - N/A   Clear
9:55 PM 53.6 °F 49.3 °F 85% 29.97 in 10.0 mi Calm Calm - N/A   Clear
10:15 PM 54.1 °F 49.1 °F 83% 29.98 in 10.0 mi Calm Calm - N/A   Clear
10:35 PM 53.4 °F 49.5 °F 86% 29.98 in 10.0 mi Calm Calm - N/A   Clear
10:55 PM 52.7 °F 49.8 °F 90% 29.98 in 10.0 mi Calm Calm - N/A   Clear
11:15 PM 51.6 °F 48.7 °F 90% 29.98 in 10.0 mi Calm Calm - N/A   Clear
11:35 PM 50.9 °F 49.1 °F 94% 29.98 in 10.0 mi Calm Calm - N/A   Clear
11:55 PM 50.9 °F 50.0 °F 97% 29.99 in 10.0 mi Calm Calm - N/A   Clear